This is the latest recevied weather packets stored in our database for station/object W1RCP. If no packets are shown the sender has not sent any weather packets the latest 1 day(s).
| Time | Temp. | Humidity | Pressure | Rain* | Wind** | Luminosity | Snow |
|---|---|---|---|---|---|---|---|
| 1777996539 | 25.56° C | 51% | 1027.7 hPa | 0 mm | 0.89 m/s, 181° | 921 W/m² | - |
| 1777996228 | 25.56° C | 51% | 1028 hPa | 0 mm | 1.79 m/s, 213° | 860 W/m² | - |
| 1777995925 | 25° C | 52% | 1028 hPa | 0 mm | 0.45 m/s, 202° | 716 W/m² | - |
| 1777995621 | 25° C | 53% | 1027.9 hPa | 0 mm | 1.79 m/s, 223° | 799 W/m² | - |
| 1777995319 | 25.56° C | 52% | 1028 hPa | 0 mm | 0.89 m/s, 216° | 784 W/m² | - |
| 1777995015 | 25° C | 55% | 1027.8 hPa | 0 mm | 0.45 m/s, 206° | 770 W/m² | - |
| 1777994712 | 24.44° C | 56% | 1027.9 hPa | 0 mm | 0.89 m/s, 199° | 763 W/m² | - |
| 1777994408 | 23.89° C | 57% | 1028.2 hPa | 0 mm | 1.34 m/s, 209° | 752 W/m² | - |
| 1777994103 | 23.89° C | 57% | 1028.2 hPa | 0 mm | 0.89 m/s, 203° | 719 W/m² | - |
| 1777993800 | 23.89° C | 56% | 1028.4 hPa | 0 mm | 1.34 m/s, 198° | 686 W/m² | - |
| 1777993497 | 23.89° C | 57% | 1028.4 hPa | 0 mm | 0.89 m/s, 187° | 694 W/m² | - |
| 1777993196 | 23.89° C | 57% | 1028.1 hPa | 0 mm | 1.79 m/s, 236° | 693 W/m² | - |
| 1777992894 | 23.33° C | 58% | 1028 hPa | 0 mm | 1.34 m/s, 207° | 694 W/m² | - |
| 1777992593 | 23.33° C | 59% | 1028.1 hPa | 0 mm | 2.24 m/s, 261° | 685 W/m² | - |
| 1777992290 | 23.33° C | 59% | 1027.9 hPa | 0 mm | 0.89 m/s, 212° | 654 W/m² | - |
| 1777991987 | 23.33° C | 61% | 1027.8 hPa | 0 mm | 0.45 m/s, 200° | 367 W/m² | - |
| 1777991685 | 23.33° C | 63% | 1027.9 hPa | 0 mm | 0.89 m/s, 202° | 549 W/m² | - |
| 1777991382 | 23.33° C | 61% | 1027.9 hPa | 0 mm | 1.79 m/s, 236° | 669 W/m² | - |
| 1777991079 | 22.22° C | 65% | 1027.7 hPa | 0 mm | 0 m/s | 649 W/m² | - |
| 1777990776 | 21.67° C | 65% | 1027.6 hPa | 0 mm | 0.89 m/s, 211° | 602 W/m² | - |
| 1777990473 | 21.67° C | 66% | 1027.6 hPa | 0 mm | 0.45 m/s, 209° | 482 W/m² | - |
| 1777990170 | 22.22° C | 65% | 1027.6 hPa | 0 mm | 0.89 m/s, 220° | 544 W/m² | - |
| 1777989867 | 22.22° C | 65% | 1027.8 hPa | 0 mm | 1.79 m/s, 237° | 566 W/m² | - |
| 1777989570 | 21.67° C | 66% | 1027.5 hPa | 0 mm | 1.79 m/s, 236° | 541 W/m² | - |
| 1777989260 | 21.11° C | 67% | 1027.5 hPa | 0 mm | 1.79 m/s, 224° | 451 W/m² | - |
* Rain latest hour (hover to see other rain measurements)
** Current wind speed in m/s (hover to see current wind gust speed)